Location: Spring Creek
(38.2870°N, 100.2160°W)
Time: 09:11:57
(UTC+00:00)

Cosmos 1758 - Pass Details

Date: 08 May 2021
Orbit: 538 x 563 km, 82.5° (Epoch: 21 June)

Event Time Altitude Azimuth Distance (km) Brightness Sun altitude
Rises 09:02:08 0° 349° (N) 2,761 7.5 -25.0°
Reaches altitude 10° 09:04:20 10° 346° (NNW) 1,860 6.5 -24.7°
Enters shadow 09:07:20 45° 326° (NW) 772 4.1 -24.3°
